ONEWEB-0082, 45452

Orbit data source: Space-Track

ONEWEB-0082, 45452 is a payload satellite owned by One Web (UK) in LEO that was launched on Sat, 21 Mar 2020 UTC via a SOYUZ-2-1B launch vehicle from the Tyuratam Missile And Space Complex (TTMTR). Payload-class satellites include a variety of spacecraft equipped with specific instruments for various scientific and technological missions. These include communications satellites like Starlink; space stations such as the ISS; scientific satellites like the Hubble; Earth observation satellites from companies like Planet Labs, Umbra, and HawkEye 360; GPS; miniature CubeSats for education and research; and military/defense satellites.

Loading next visibility...
Identifier
45452, 2020-020AE
Orbit
LEO
Last TLE update
14 hours ago
Origin
Manufacturer
One Web
Mission
Operational Commercial Communications
Bus & Motor
ARROW, Unknown motor
Mass
148 kg wet, ~140 kg dry
Launch date (UTC)
2020-03-21 (5 years ago)
Launch vehicle
SOYUZ-2-1B
Launch site
Tyuratam Missile And Space Complex (TTMTR)
Object type
Payload
Rocket body
Debris
Shape & HBR
Trap Box + 2 Pan, 5 m
Radar Cross Section
2.957 m², Medium (>0.1 m² and < 1m²)

Expand to show TLE details & history

TLE from 14 hours ago
0 ONEWEB-0082
1 45452U 20020AE  25181.83397525 -.00000023  00000-0 -10110-3 0  9996
2 45452  87.8838  91.0645 0001986  82.0157 278.1196 13.11414624256628
Epoch: 2025-06-30T20:00Z
TLE epoch observation values (Epoch: 2025-06-30T20:00:55.461Z)
Latitude
-0.00005°
Longitude
-128.30469°
Altitude
1,220.368 km
Speed
7.244 km/s
True Right ascension
06h 04m 15s
True Declination
0° 00' 00"
Sunlit
Object was in daylight at epoch
Visualization orbit readout
Latitude
34.80019°
Longitude
50.11853°
Altitude
1,221.679 km
Speed
7.247 km/s
Apparent Right ascension
14h 35m 09s
Apparent Declination
2° 57' 50"
Sunlit
Object is in daylight
Visualization observer readout
Local Sidereal Time
21:12:34
Azimuth
278.305° WNW
Elevation
-5.241°
Doppler factor
1
Orbital elements
Apogee altitude
1,216.318 km
Perigee altitude
1,213.302 km
Semi-major axis
7,592.947 km
Eccentricity
0.0002
Inclination
87.8838°
RAAN
91.0645°
Arg. of periapsis
82.0157°
True anomaly
Unknown
Mean anomaly
278.1196°
Eccentric anomaly
Unknown
Mean motion
3.28041 °/min
Orbital period
109.74 mins
BSTAR
-0.0001011
Loading maneuver chart data...
Loading SW <> Apogee altitude chart data...
Loading historical data...
Loading historical data...
Loading historical data...
Loading historical data...
Loading historical data...
Loading historical data...
Loading historical data...

ONEWEB-0082 Visibility forecast

Observer location: undefined°, undefined°

Span
Click to sort rows by Start time (UTC) header in descending order
Start Az.
Max El. time (UTC)
Max El. Az.
Max El.
End time (UTC)
End Az.
13 mins2025-07-01 18:05:16.429Z165.633° S2025-07-01 18:11:16.429Z99.169° ESE42.672°2025-07-01 18:18:16.429Z6.591° NNE
9 mins2025-07-01 19:58:16.429Z248.17° W2025-07-01 20:02:16.429Z287.424° WNW19.892°2025-07-01 20:07:16.429Z331.339° NNW
13 mins2025-07-02 05:35:16.429Z11.849° NNE2025-07-02 05:41:16.429Z88.508° E39.054°2025-07-02 05:48:16.429Z161.695° S
10 mins2025-07-02 07:26:16.429Z327.447° NNW2025-07-02 07:30:16.429Z286.899° WNW24.246°2025-07-02 07:36:16.429Z230.356° WSW
|